Weather in Nahoriany

Ukraine / Vinnytsia Region     48°29′38″N   27°35′06″E
temp.,
°C
wind,
m/s
gust,
m/s
humid.,
%
clouds,
%
prec.,
mm/h
press.,
hPa
HPBL,
m
9 may, sun
sun900:00+4wnw35800 0.0 102298
03:00+3wnw23850 0.0 102340
06:00+2wnw22895 0.0 102439
09:00+8nw35665 0.0 1026519
12:00+13nw354777 0.0 10251988
15:00+15nw343991 0.0 10252397
18:00+15wnw12395 0.0 10241891
21:00+10sse22525 0.0 102511
10 may, mon
mon1000:00+8se22600 0.0 102623
03:00+7se22655 0.0 102629
06:00+6ese23685 0.0 102637
09:00+12se58545 0.0 1026440
12:00+16se67455 0.0 10251345
15:00+18se66455 0.0 10241541
18:00+18se455296 0.0 10231409
21:00+12ese486754 0.0 1023146
11 may, tue
tue1100:00+10e36725 0.0 102493
03:00+8e36720 0.0 1023108
06:00+7e35780 0.0 102384
09:00+12e57610 0.0 1022444
12:00+16e45440 0.0 10211154
15:00+18e44380 0.0 10191361
18:00+18e45500 0.0 10181225
21:00+13e49835 0.0 1017199
12 may, wed
wed1200:00+11ene228998 0.0 101723
03:00+12e4789100 0.0 1015381
06:00+10e588968 0.0 1014431
09:00+11e67690 0.0 1014737
12:00+14e555638 0.0 10131436
15:00+12e555895 0.0 10131121
18:00+13e555640 0.0 10111019
21:00+9ese347086 0.0 101169
13 may, thu
thu1300:00+9ese3982100 0.9 1010375
03:00+9ese51097100 6.5 1008494
06:00+9se5129579 0.6 1007519
09:00+12sse81384100 0.6 1007819
12:00+10se61392100 1.3 1008821
15:00+12se51086100 1.5 1008769
18:00+14se357922 0.0 1007390
21:00+11e2288100 0.0 100713